GW6421 Weather Reports


time (UTC)temp
C
wind
direction
speed
KPH
gust
KPH
rain 1hr
cm
rain 24hr
cm
rain mn
cm
humidity
%
barometer
mb
20260505062011 14 79 1.6 11.3 0.00 1.12 1.12 93 1016.0
20260505061528 14 117 3.2 11.3 0.00 1.12 1.12 92 1016.0
20260505061008 14 121 1.6 11.3 0.00 1.12 1.12 93 1015.9
20260505060510 14 116 3.2 11.3 0.00 1.12 1.12 93 1016.0
20260505060015 14 82 1.6 11.3 0.00 1.12 1.12 93 1015.9
20260505055508 14 102 1.6 12.9 0.00 1.12 1.12 93 1015.9
20260505055011 14 87 3.2 12.9 0.00 1.12 1.12 93 1015.8
20260505054522 13 122 3.2 12.9 0.00 1.12 1.12 93 1015.8
20260505054015 13 139 3.2 12.9 0.00 1.12 1.12 93 1015.8
20260505053512 13 163 1.6 8.0 0.00 1.12 1.12 93 1015.8
20260505053024 13 117 3.2 8.0 0.03 1.12 1.12 93 1015.8
20260505052508 13 125 1.6 8.0 0.08 1.12 1.12 93 1015.7
20260505052007 13 79 1.6 9.7 0.10 1.12 1.12 93 1015.7
20260505051525 13 146 1.6 12.9 0.13 1.12 1.12 93 1015.7
20260505051007 13 158 3.2 12.9 0.13 1.12 1.12 93 1015.8
20260505050510 13 83 3.2 11.3 0.13 1.12 1.12 93 1015.8
20260505041522 13 153 1.6 6.4 0.05 0.99 0.97 93 1015.7
20260505041007 13 96 0.0 6.4 0.08 0.99 0.97 93 1015.7
20260505040512 13 126 1.6 6.4 0.08 0.99 0.97 93 1015.7
20260505040027 13 95 1.6 6.4 0.08 0.99 0.97 93 1015.5
20260505035509 13 155 1.6 9.7 0.05 0.97 0.94 93 1015.6
20260505035010 13 90 1.6 9.7 0.05 0.94 0.94 93 1015.6
20260505034526 13 116 3.2 8.0 0.05 0.94 0.94 93 1015.7
20260505034013 13 87 1.6 11.3 0.08 0.94 0.94 93 1015.7
20260505033509 13 158 3.2 11.3 0.10 0.94 0.94 93 1015.7
20260505033018 13 134 3.2 11.3 0.15 0.94 0.94 93 1015.7
20260505032510 13 118 3.2 11.3 0.15 0.94 0.91 93 1015.6
20260505032011 13 148 3.2 16.1 0.18 0.94 0.91 93 1015.8
20260505031503 13 108 6.4 16.1 0.28 0.94 0.91 92 1015.8
20260505031002 13 44 3.2 9.7 0.30 0.91 0.89 92 1015.9
20260505030502 13 149 3.2 12.9 0.38 0.91 0.89 93 1016.0
20260505030007 13 89 4.8 12.9 0.46 0.91 0.89 93 1016.0
20260505025505 13 110 3.2 9.7 0.46 0.91 0.89 93 1016.1
20260505025006 13 125 3.2 6.4 0.51 0.89 0.86 93 1016.2
20260505024508 13 124 3.2 6.4 0.53 0.89 0.86 92 1016.3
20260505024005 13 109 3.2 6.4 0.53 0.86 0.84 92 1016.3
20260505023505 13 74 0.0 11.3 0.48 0.81 0.79 92 1016.3
20260505023017 13 92 1.6 11.3 0.51 0.79 0.76 92 1016.4
20260505022505 13 72 1.6 6.4 0.53 0.76 0.74 92 1016.4
20260505022010 14 119 1.6 4.8 0.51 0.74 0.71 92 1016.5
20260505021517 14 91 1.6 4.8 0.43 0.64 0.64 92 1016.5
20260505021010 14 100 1.6 4.8 0.38 0.58 0.56 92 1016.4
20260505020509 14 108 0.0 6.4 0.30 0.51 0.48 92 1016.5
20260505020004 14 110 1.6 8.0 0.25 0.46 0.43 92 1016.6
20260505015503 14 126 1.6 9.7 0.23 0.43 0.41 92 1016.5
20260505015002 14 68 3.2 9.7 0.18 0.36 0.36 92 1016.5
20260505014511 14 103 1.6 9.7 0.15 0.36 0.33 92 1016.6
20260505014007 14 139 1.6 9.7 0.13 0.33 0.30 92 1016.6
20260505013505 14 87 1.6 8.0 0.10 0.30 0.28 92 1016.6
20260505013012 14 79 1.6 4.8 0.08 0.28 0.25 92 1016.7
20260505012505 14 101 1.6 4.8 0.03 0.23 0.20 92 1016.7
20260505012011 14 134 0.0 4.8 0.00 0.20 0.18 92 1016.8
20260505011518 14 87 3.2 4.8 0.00 0.20 0.18 92 1016.9
20260505011010 14 138 0.0 3.2 0.00 0.18 0.18 92 1017.0
20260505010506 14 105 1.6 3.2 0.00 0.18 0.18 92 1017.0
20260505010020 14 118 0.0 3.2 0.00 0.18 0.18 92 1017.0
20260505005510 14 88 0.0 3.2 0.00 0.18 0.18 92 1017.1
20260505005008 14 121 0.0 3.2 0.00 0.18 0.18 92 1017.1
20260505004507 14 111 0.0 3.2 0.00 0.18 0.18 92 1017.2
20260505004003 14 96 0.0 3.2 0.00 0.18 0.18 92 1017.3
20260505003505 14 129 0.0 3.2 0.00 0.18 0.18 92 1017.3
20260505003008 14 111 0.0 3.2 0.00 0.18 0.18 91 1017.4
20260505002506 14 94 0.0 3.2 0.03 0.18 0.18 91 1017.5
20260505002008 15 89 0.0 3.2 0.05 0.18 0.18 91 1017.5
20260505001513 14 91 0.0 3.2 0.08 0.18 0.18 91 1017.5
20260505001009 15 96 0.0 3.2 0.08 0.18 0.15 91 1017.5
20260505000506 14 121 0.0 3.2 0.13 0.18 0.15 91 1017.6
20260505000018 15 91 0.0 3.2 0.13 0.18 0.15 91 1017.6
20260504235506 15 129 0.0 3.2 0.15 0.18 0.15 91 1017.6
20260504235009 15 137 0.0 3.2 0.15 0.18 0.15 90 1017.7
20260504234522 15 100 0.0 3.2 0.15 0.18 0.15 90 1017.7
20260504234011 15 118 0.0 3.2 0.15 0.18 0.15 90 1017.8
20260504233509 15 117 0.0 3.2 0.15 0.18 0.15 90 1017.8
20260504233024 15 113 1.6 3.2 0.15 0.18 0.15 90 1017.8
20260504232505 15 108 1.6 4.8 0.13 0.15 0.13 89 1017.8
20260504232005 15 153 0.0 4.8 0.10 0.13 0.10 89 1017.8
20260504231507 15 84 1.6 4.8 0.08 0.08 0.08 89 1017.8
20260504231003 15 101 0.0 4.8 0.05 0.08 0.05 88 1018.0
20260504230509 15 149 1.6 6.4 0.00 0.03 0.00 88 1018.1
20260504230018 15 94 0.0 6.4 0.00 0.03 0.00 88 1018.0
20260504225507 15 154 1.6 8.0 0.00 0.00 0.00 88 1018.0
20260504225005 15 146 1.6 8.0 0.00 0.00 0.00 88 1018.0
20260504224519 15 89 1.6 8.0 0.00 0.00 0.00 88 1018.1
20260504224008 15 86 1.6 4.8 0.00 0.00 0.00 88 1018.2
20260504223508 15 105 1.6 3.2 0.00 0.00 0.00 88 1018.3
20260504223024 15 108 0.0 4.8 0.00 0.00 0.00 88 1018.4
20260504222515 15 104 1.6 4.8 0.00 0.00 0.00 88 1018.5
20260504222010 15 71 1.6 3.2 0.00 0.00 0.00 88 1018.6
20260504221526 15 102 0.0 4.8 0.00 0.00 0.00 88 1018.7
20260504221005 15 113 1.6 4.8 0.00 0.00 0.00 88 1018.6
20260504220503 15 98 1.6 3.2 0.00 0.00 0.00 89 1018.6
20260504220010 15 122 0.0 4.8 0.00 0.00 0.00 89 1018.7
20260504215507 15 129 0.0 4.8 0.00 0.00 0.00 89 1018.6
20260504215007 15 113 1.6 4.8 0.00 0.00 0.00 89 1018.7
20260504214517 15 112 0.0 4.8 0.00 0.00 0.00 89 1018.8
20260504214006 15 124 0.0 4.8 0.00 0.00 0.00 89 1018.8
20260504213507 15 103 1.6 4.8 0.00 0.00 0.00 89 1018.8
20260504213026 15 113 1.6 6.4 0.00 0.00 0.00 90 1018.8
20260504212507 15 98 1.6 6.4 0.00 0.00 0.00 90 1018.9
20260504212011 15 110 0.0 3.2 0.00 0.00 0.00 90 1019.0
20260504211534 15 134 0.0 3.2 0.00 0.00 0.00 90 1019.1
20260504211010 15 115 0.0 3.2 0.00 0.00 0.00 90 1019.1
20260504210511 15 115 1.6 3.2 0.00 0.00 0.00 90 1019.1
20260504210028 15 122 0.0 3.2 0.00 0.00 0.00 90 1019.1
20260504205504 15 143 0.0 3.2 0.00 0.00 0.00 90 1019.2
20260504205007 15 115 0.0 1.6 0.00 0.00 0.00 90 1019.1
20260504204515 15 117 0.0 1.6 0.00 0.00 0.00 90 1019.1
20260504204007 15 117 0.0 3.2 0.00 0.00 0.00 90 1019.2
20260504203507 15 139 0.0 3.2 0.00 0.00 0.00 90 1019.2
20260504203021 15 116 0.0 3.2 0.00 0.00 0.00 90 1019.2
20260504202508 15 123 0.0 1.6 0.00 0.00 0.00 90 1019.1
20260504202008 15 122 0.0 1.6 0.00 0.00 0.00 90 1019.2
20260504201520 15 141 0.0 1.6 0.00 0.00 0.00 90 1019.2
20260504201010 15 141 0.0 1.6 0.00 0.00 0.00 90 1019.1
20260504200509 15 141 0.0 1.6 0.00 0.00 0.00 90 1019.1
20260504200026 15 91 0.0 1.6 0.00 0.00 0.00 89 1019.1
20260504195509 15 131 0.0 3.2 0.00 0.00 0.00 89 1019.0
20260504195013 16 157 0.0 3.2 0.00 0.00 0.00 89 1018.9
20260504194528 16 119 0.0 3.2 0.00 0.00 0.00 89 1018.9
20260504194005 16 105 0.0 3.2 0.00 0.00 0.00 89 1018.9
20260504193505 16 102 0.0 3.2 0.00 0.00 0.00 89 1018.9
20260504193015 16 119 0.0 3.2 0.00 0.00 0.00 89 1018.8
20260504192507 16 100 0.0 3.2 0.00 0.00 0.00 88 1018.8
20260504192008 16 125 1.6 3.2 0.00 0.00 0.00 88 1018.8
20260504191522 16 150 0.0 3.2 0.00 0.00 0.00 87 1018.8
20260504191007 16 120 0.0 3.2 0.00 0.00 0.00 87 1018.9
20260504190509 16 93 0.0 1.6 0.00 0.00 0.00 86 1018.9
20260504190024 16 121 0.0 1.6 0.00 0.00 0.00 85 1018.8
20260504185507 16 135 0.0 1.6 0.00 0.00 0.00 84 1018.9
20260504185009 16 155 0.0 4.8 0.00 0.00 0.00 85 1018.8
20260504184536 16 97 0.0 4.8 0.00 0.00 0.00 85 1018.8
20260504184012 16 74 0.0 8.0 0.00 0.00 0.00 84 1018.8
20260504183514 16 137 0.0 8.0 0.00 0.00 0.00 84 1018.9
20260504183027 17 141 0.0 1.6 0.00 0.00 0.00 84 1018.8
20260504182507 17 106 0.0 4.8 0.00 0.00 0.00 83 1018.8
20260504182005 17 149 0.0 6.4 0.00 0.00 0.00 83 1018.8
20260504181514 17 103 1.6 6.4 0.00 0.00 0.00 82 1018.9
20260504181008 17 79 0.0 3.2 0.00 0.00 0.00 82 1018.9
20260504180510 17 142 0.0 3.2 0.00 0.00 0.00 81 1018.9
20260504180024 17 109 0.0 3.2 0.00 0.00 0.00 81 1018.9
20260504175508 17 178 0.0 8.0 0.00 0.00 0.00 81 1018.9
20260504175013 17 225 1.6 8.0 0.00 0.00 0.00 81 1018.9
20260504174528 17 157 1.6 8.0 0.00 0.00 0.00 81 1018.9
20260504174003 17 107 1.6 8.0 0.00 0.00 0.00 80 1018.9
20260504173509 17 86 1.6 4.8 0.00 0.00 0.00 80 1018.9
20260504173007 17 165 1.6 6.4 0.00 0.00 0.00 80 1018.9
20260504172504 17 158 1.6 6.4 0.00 0.00 0.00 79 1018.8
20260504172007 17 44 1.6 8.0 0.00 0.00 0.00 79 1018.9
20260504171513 17 122 0.0 8.0 0.00 0.00 0.00 79 1018.9
20260504171007 18 106 0.0 8.0 0.00 0.00 0.00 79 1018.8
20260504170508 18 199 1.6 9.7 0.00 0.00 0.00 78 1018.8
20260504151003 19 151 1.6 9.7 0.00 0.00 0.00 73 1019.2
20260504150510 18 127 1.6 12.9 0.00 0.00 0.00 74 1019.2
20260504141013 18 84 1.6 8.0 0.00 0.00 0.00 72 1019.2
20260504140515 18 187 1.6 8.0 0.00 0.00 0.00 72 1019.3
20260504130512 18 251 3.2 11.3 0.00 0.00 0.00 69 1019.7
20260504110507 20 98 3.2 14.5 0.00 0.00 0.00 66 1020.4
20260504100507 20 158 3.2 11.3 0.00 0.00 0.00 65 1020.9
20260504081506 19 225 3.2 11.3 0.00 0.00 0.00 70 1020.9
20260504081004 19 97 4.8 9.7 0.00 0.00 0.00 69 1020.9
20260504080511 18 162 1.6 9.7 0.00 0.00 0.00 71 1020.8